[[{"header":{"parameterUnit":"m.s-1","parameterCategory":2,"la1":30.2992,"la2":30.254,"lo1":-89.0895,"lo2":-89.0443,"dy":0.0025,"dx":0.0025,"nx":19,"ny":19,"refTime":"2026-05-22T09:00:00:Z","depth":"0","parameterNumber":2,"parameterNumberName":"U-component_of_CURRENTS"},"data":[0,0,0,-0.1969,-0.1971,-0.2046,-0.2047,-0.2096,-0.2096,0,0,0,0,0,0,0,0,0,0,0,-0.1941,-0.1942,-0.1969,-0.1971,-0.2046,-0.2047,-0.2096,-0.2096,0,0,0,0,0,0,0,0,0,0,0,-0.1941,-0.1942,-0.1942,-0.1971,-0.2046,-0.2047,-0.2096,-0.205,0,0,0,0,0,0,0,0,0,0,-0.1982,-0.1951,-0.1942,-0.1942,-0.1972,-0.2046,-0.2047,-0.2048,-0.2053,-0.2049,0,-0.2065,0,-0.2083,-0.2099,-0.2099,0,0,0,-0.1969,-0.1947,-0.1982,-0.1942,-0.1972,-0.2046,-0.2012,-0.2051,-0.2056,-0.2055,-0.2066,-0.2068,-0.2084,-0.2099,-0.2099,-0.2199,-0.22,0,0,-0.1964,-0.194,-0.1979,-0.1985,-0.1996,-0.2009,-0.2014,-0.2055,-0.2052,-0.2066,-0.2069,-0.2084,-0.2099,-0.2099,-0.2198,-0.2199,0,0,0,-0.1954,-0.1937,-0.1971,-0.1983,-0.2001,-0.2011,-0.2017,-0.205,-0.2066,-0.207,-0.2085,-0.2099,-0.21,-0.2197,-0.2198,-0.2252,0,0,0,-0.1952,-0.1932,-0.1969,-0.1953,-0.2001,-0.203,-0.2011,-0.2063,-0.2069,-0.2085,-0.2099,-0.21,-0.2196,-0.2198,-0.2249,-0.2263,0,0,0,-0.1937,-0.1929,-0.1943,-0.1952,-0.1988,-0.203,-0.2048,-0.2065,-0.2077,-0.2099,-0.21,-0.2196,-0.2198,-0.2246,-0.2258,-0.2248,0,0,0,-0.1903,-0.1936,-0.1942,-0.1996,-0.1987,-0.2085,-0.2048,-0.2099,-0.2123,-0.21,-0.2196,-0.2198,-0.2245,-0.2256,-0.2246,-0.2099,-0.2097,0,0,-0.1931,-0.1938,-0.1978,-0.1987,-0.2088,-0.2074,-0.217,-0.217,-0.215,-0.2177,-0.218,-0.225,-0.2258,-0.2247,-0.2211,-0.2205,0,0,0,-0.1981,-0.2005,-0.2039,-0.2097,-0.2161,-0.2215,-0.2228,-0.2227,-0.2247,-0.2174,-0.2275,-0.2278,-0.2269,-0.2177,-0.2174,-0.2104,-0.2207,-0.2207,-0.2207,-0.1953,-0.2025,-0.2101,-0.2191,-0.2252,-0.2314,-0.2342,-0.2344,-0.2322,-0.2337,-0.2341,-0.2396,-0.2302,-0.2297,-0.2229,-0.2367,-0.2368,-0.2368,-0.2368,-0.2003,-0.2052,-0.2145,-0.2239,-0.2316,-0.2387,-0.2447,-0.2433,-0.2445,-0.2422,-0.241,-0.2263,-0.2295,-0.2224,-0.2372,-0.2371,-0.2371,-0.237,-0.237,-0.1974,-0.2012,-0.2078,-0.2205,-0.2311,-0.2403,-0.2457,-0.2492,-0.248,-0.2488,-0.2345,-0.2341,-0.2257,-0.247,-0.247,-0.247,-0.247,-0.247,-0.247,-0.1905,-0.1986,-0.2016,-0.2164,-0.2224,-0.2329,-0.2448,-0.246,-0.2427,-0.2387,-0.2385,-0.2267,-0.2426,-0.2396,-0.2471,-0.2471,-0.2471,-0.2471,-0.2471,-0.1842,-0.186,-0.1906,-0.1954,-0.2106,-0.2104,-0.2303,-0.2294,-0.2327,-0.2265,-0.2159,-0.2315,-0.227,-0.227,-0.2237,-0.2266,-0.2266,-0.2266,-0.2266,-0.1749,-0.1781,-0.1768,-0.18,-0.1894,-0.1985,-0.1879,-0.1929,-0.1981,-0.1952,-0.2041,-0.1988,-0.2,-0.1938,-0.1946,-0.1906,-0.1851,-0.185,-0.185,-0.1658,-0.1684,-0.1606,-0.1666,-0.1767,-0.1778,-0.154,-0.1377,-0.1575,-0.1834,-0.1981,-0.1999,-0.1927,-0.195,-0.1856,-0.1873,-0.1808,0,0]},{"header":{"parameterUnit":"m.s-1","parameterCategory":2,"la1":30.2992,"la2":30.254,"lo1":-89.0895,"lo2":-89.0443,"dy":0.0025,"dx":0.0025,"nx":19,"ny":19,"refTime":"2026-05-22T09:00:00:Z","depth":"0","parameterNumber":3,"parameterNumberName":"V-component_of_CURRENTS"},"data":[0,0,0,0.02,0.0201,0.0268,0.0269,0.0355,0.0356,0,0,0,0,0,0,0,0,0,0,0,0.017,0.017,0.02,0.0201,0.0268,0.0269,0.0355,0.0356,0,0,0,0,0,0,0,0,0,0,0,0.017,0.017,0.017,0.0201,0.0268,0.0269,0.0355,0.0306,0,0,0,0,0,0,0,0,0,0,0.0241,0.0203,0.017,0.017,0.0202,0.0268,0.0269,0.0304,0.0309,0.0323,0,0.0323,0,0.0342,0.0361,0.0361,0,0,0,0.0209,0.0199,0.0224,0.017,0.0202,0.0268,0.024,0.0307,0.0313,0.033,0.0325,0.0328,0.0343,0.0362,0.0362,0.0405,0.0405,0,0,0.0205,0.0179,0.022,0.0227,0.0208,0.0238,0.0242,0.031,0.0307,0.0325,0.0331,0.0344,0.0362,0.0363,0.0406,0.0405,0,0,0,0.0189,0.0176,0.02,0.0224,0.0236,0.024,0.0245,0.0304,0.0314,0.0332,0.0345,0.0363,0.0363,0.0406,0.0405,0.0315,0,0,0,0.0187,0.0167,0.0198,0.0183,0.0234,0.0269,0.0236,0.0309,0.0317,0.0345,0.0363,0.0364,0.0406,0.0406,0.0317,0.0273,0,0,0,0.0169,0.0165,0.0171,0.0181,0.0209,0.0269,0.0282,0.0311,0.0326,0.0361,0.0364,0.0406,0.0406,0.032,0.0278,0.0306,0,0,0,0.0145,0.0108,0.017,0.0132,0.0208,0.0218,0.0282,0.0295,0.0317,0.0363,0.0406,0.0405,0.032,0.0281,0.0308,0.0459,0.0463,0,0,0.0078,0.0099,0.0076,0.0132,0.0104,0.021,0.0201,0.0261,0.0324,0.0385,0.0386,0.0316,0.0278,0.0307,0.0446,0.045,0,0,0,0.0041,0.0017,0.002,0.0022,0.0068,0.0112,0.019,0.024,0.0299,0.0337,0.0338,0.0317,0.0338,0.0433,0.0436,0.0777,0.0404,0.0404,0.0404,-0.0079,-0.0058,-0.011,-0.008,-0.0054,0.0048,0.0093,0.0183,0.0245,0.0265,0.0258,0.0236,0.0336,0.0341,0.0689,0.0279,0.0279,0.0279,0.0279,-0.0215,-0.0253,-0.0213,-0.0255,-0.0171,-0.0145,-0.0003,0.0066,0.0164,0.0205,0.0231,0.0351,0.0339,0.071,0.0273,0.0274,0.0275,0.0275,0.0276,-0.0314,-0.0331,-0.0345,-0.0384,-0.0364,-0.0262,-0.0198,-0.0074,0.007,0.0095,0.0272,0.0276,0.0593,0.0129,0.0129,0.0128,0.0128,0.0128,0.0128,-0.0403,-0.042,-0.0501,-0.052,-0.0537,-0.0492,-0.0307,-0.0189,0.0053,0.0195,0.0198,0.0649,0.0192,0.0189,0.0127,0.0127,0.0127,0.0127,0.0127,-0.0531,-0.0523,-0.0656,-0.0703,-0.0735,-0.065,-0.0479,-0.0097,0.0054,0.0218,0.0775,0.0284,0.0342,0.0343,0.0345,0.0327,0.0327,0.0327,0.0327,-0.0596,-0.0613,-0.0774,-0.0874,-0.0912,-0.0734,-0.0362,0.0106,0.0694,0.1015,0.1048,0.1156,0.1133,0.1244,0.1224,0.1248,0.1459,0.1461,0.1463,-0.0671,-0.0716,-0.0839,-0.0935,-0.099,-0.0756,-0.0254,0.0508,0.1285,0.1539,0.1493,0.1445,0.163,0.1566,0.1756,0.1702,0.1743,0,0]}],[{"header":{"parameterUnit":"m.s-1","parameterCategory":2,"la1":30.2992,"la2":30.254,"lo1":-89.0895,"lo2":-89.0443,"dy":0.0025,"dx":0.0025,"nx":19,"ny":19,"refTime":"2026-05-22T09:00:00:Z","depth":"2","parameterNumber":2,"parameterNumberName":"U-component_of_CURRENTS"},"data":[0,0,0,-0.1943,-0.1945,-0.2021,-0.2021,-0.2071,-0.2072,0,0,0,0,0,0,0,0,0,0,0,-0.1915,-0.1916,-0.1943,-0.1945,-0.2021,-0.2021,-0.2071,-0.2072,0,0,0,0,0,0,0,0,0,0,0,-0.1915,-0.1916,-0.1916,-0.1946,-0.2021,-0.2022,-0.2071,-0.2025,0,0,0,0,0,0,0,0,0,0,-0.1957,-0.1926,-0.1915,-0.1916,-0.1946,-0.2021,-0.2022,-0.2023,-0.2028,-0.2024,0,-0.204,0,-0.2058,-0.2074,-0.2074,0,0,0,-0.1943,-0.1922,-0.1956,-0.1916,-0.1947,-0.2021,-0.1986,-0.2026,-0.2031,-0.203,-0.2041,-0.2043,-0.2059,-0.2074,-0.2075,-0.2173,-0.2174,0,0,-0.1939,-0.1915,-0.1953,-0.196,-0.1971,-0.1984,-0.1989,-0.203,-0.2028,-0.2041,-0.2044,-0.206,-0.2075,-0.2075,-0.2173,-0.2174,0,0,0,-0.1928,-0.1912,-0.1945,-0.1957,-0.1976,-0.1986,-0.1992,-0.2026,-0.2041,-0.2045,-0.206,-0.2075,-0.2075,-0.2172,-0.2173,-0.2227,0,0,0,-0.1926,-0.1906,-0.1943,-0.1928,-0.1975,-0.2005,-0.1986,-0.2038,-0.2044,-0.206,-0.2075,-0.2076,-0.2171,-0.2172,-0.2224,-0.2238,0,0,0,-0.1911,-0.1904,-0.1918,-0.1927,-0.1963,-0.2005,-0.2023,-0.204,-0.2053,-0.2074,-0.2076,-0.217,-0.2172,-0.2221,-0.2234,-0.2224,0,0,0,-0.1878,-0.1911,-0.1917,-0.1971,-0.1962,-0.2059,-0.2023,-0.2074,-0.2098,-0.2075,-0.2171,-0.2173,-0.222,-0.2231,-0.2221,-0.2061,-0.2058,0,0,-0.1906,-0.1913,-0.1953,-0.1962,-0.2061,-0.2048,-0.2144,-0.2145,-0.2125,-0.2151,-0.2154,-0.2225,-0.2233,-0.2223,-0.2172,-0.2165,0,0,0,-0.1955,-0.1979,-0.2013,-0.2071,-0.2134,-0.2188,-0.2201,-0.2201,-0.2221,-0.2149,-0.2249,-0.2253,-0.2244,-0.2144,-0.214,-0.2182,-0.2182,-0.2181,-0.2181,-0.1929,-0.2,-0.2075,-0.2164,-0.2225,-0.2287,-0.2315,-0.2317,-0.2295,-0.2311,-0.2315,-0.237,-0.2268,-0.2262,-0.2341,-0.2341,-0.2341,-0.2341,-0.2342,-0.1979,-0.2028,-0.212,-0.2212,-0.2289,-0.236,-0.2419,-0.2406,-0.2418,-0.2396,-0.2384,-0.223,-0.2259,-0.2346,-0.2345,-0.2345,-0.2344,-0.2344,-0.2344,-0.1951,-0.1988,-0.2054,-0.2181,-0.2285,-0.2377,-0.2431,-0.2466,-0.2454,-0.2462,-0.2311,-0.2307,-0.2366,-0.2445,-0.2445,-0.2445,-0.2445,-0.2445,-0.2445,-0.1883,-0.1963,-0.1994,-0.2141,-0.2201,-0.2306,-0.2424,-0.2435,-0.2396,-0.2352,-0.235,-0.2404,-0.2401,-0.2372,-0.2446,-0.2446,-0.2446,-0.2446,-0.2446,-0.1819,-0.184,-0.1886,-0.1934,-0.2086,-0.2072,-0.2278,-0.2263,-0.2297,-0.223,-0.2271,-0.2274,-0.2228,-0.2229,-0.2196,-0.2221,-0.2221,-0.2221,-0.2221,-0.1727,-0.1759,-0.1751,-0.1784,-0.1878,-0.195,-0.1839,-0.1848,-0.1933,-0.1917,-0.193,-0.1871,-0.1887,-0.1818,-0.1829,-0.1787,-0.1705,-0.1704,-0.1703,-0.1636,-0.1665,-0.1589,-0.1652,-0.1753,-0.1733,-0.148,-0.1297,-0.1397,-0.1684,-0.1848,-0.2185,-0.2132,-0.2144,-0.2065,-0.2073,-0.2015,0,0]},{"header":{"parameterUnit":"m.s-1","parameterCategory":2,"la1":30.2992,"la2":30.254,"lo1":-89.0895,"lo2":-89.0443,"dy":0.0025,"dx":0.0025,"nx":19,"ny":19,"refTime":"2026-05-22T09:00:00:Z","depth":"2","parameterNumber":3,"parameterNumberName":"V-component_of_CURRENTS"},"data":[0,0,0,0.0145,0.0146,0.0216,0.0217,0.0303,0.0303,0,0,0,0,0,0,0,0,0,0,0,0.0114,0.0114,0.0145,0.0146,0.0216,0.0217,0.0302,0.0303,0,0,0,0,0,0,0,0,0,0,0,0.0114,0.0114,0.0114,0.0146,0.0216,0.0217,0.0302,0.0252,0,0,0,0,0,0,0,0,0,0,0.0185,0.0148,0.0114,0.0114,0.0147,0.0216,0.0217,0.025,0.0255,0.0267,0,0.0269,0,0.0288,0.0308,0.0308,0,0,0,0.0154,0.0143,0.0168,0.0114,0.0147,0.0216,0.0187,0.0253,0.0259,0.0274,0.027,0.0274,0.0289,0.0309,0.0309,0.0352,0.0352,0,0,0.015,0.0124,0.0164,0.0172,0.0154,0.0184,0.0189,0.0257,0.0254,0.0271,0.0276,0.0291,0.0309,0.031,0.0352,0.0352,0,0,0,0.0134,0.0121,0.0145,0.0168,0.0181,0.0186,0.0191,0.0251,0.026,0.0277,0.0292,0.031,0.031,0.0352,0.0352,0.0263,0,0,0,0.0132,0.0112,0.0143,0.0128,0.0179,0.0216,0.0184,0.0256,0.0264,0.0291,0.031,0.0311,0.0352,0.0352,0.0266,0.0222,0,0,0,0.0113,0.011,0.0116,0.0127,0.0156,0.0215,0.0229,0.0258,0.0273,0.0308,0.0311,0.0352,0.0352,0.0268,0.0227,0.0257,0,0,0,0.0089,0.0054,0.0115,0.0079,0.0155,0.0165,0.0229,0.0243,0.0265,0.031,0.0352,0.0352,0.0269,0.023,0.0259,0.0388,0.039,0,0,0.0023,0.0045,0.0023,0.0079,0.0052,0.0157,0.015,0.021,0.0272,0.0331,0.0332,0.0265,0.0227,0.0257,0.0376,0.0378,0,0,0,-0.0012,-0.0035,-0.0032,-0.0028,0.0018,0.0061,0.0139,0.0189,0.0248,0.0285,0.0286,0.0265,0.0287,0.0369,0.0371,0.0351,0.0351,0.0351,0.0351,-0.013,-0.0109,-0.0159,-0.0129,-0.0103,-0.0001,0.0045,0.0134,0.0195,0.0215,0.0208,0.0189,0.0274,0.0278,0.023,0.0229,0.0229,0.0229,0.0229,-0.0263,-0.0301,-0.026,-0.0301,-0.0217,-0.0192,-0.005,0.0019,0.0117,0.0157,0.0184,0.029,0.0275,0.0222,0.0223,0.0224,0.0225,0.0225,0.0226,-0.0362,-0.0379,-0.0391,-0.0429,-0.0408,-0.0306,-0.0241,-0.0118,0.0025,0.0051,0.0212,0.0216,0.0148,0.0085,0.0085,0.0085,0.0084,0.0084,0.0084,-0.0451,-0.0467,-0.0545,-0.0563,-0.0579,-0.0533,-0.0348,-0.023,0.0002,0.0136,0.0139,0.0142,0.0146,0.0143,0.0083,0.0083,0.0083,0.0084,0.0084,-0.0582,-0.0569,-0.07,-0.0746,-0.0776,-0.0743,-0.0526,-0.0155,0.0001,0.0157,0.0219,0.0216,0.0271,0.0273,0.0274,0.0253,0.0252,0.0253,0.0253,-0.0648,-0.0663,-0.0818,-0.0916,-0.0952,-0.0843,-0.0586,-0.023,0.0115,0.0238,0.0238,0.027,0.0266,0.0322,0.0322,0.0325,0.0315,0.0315,0.0314,-0.0727,-0.0767,-0.0887,-0.0977,-0.1031,-0.0919,-0.0665,-0.0174,0.0287,0.0304,0.0119,0.0282,0.0333,0.0324,0.0417,0.0414,0.0422,0,0]}],[{"header":{"parameterUnit":"m.s-1","parameterCategory":2,"la1":30.2992,"la2":30.254,"lo1":-89.0895,"lo2":-89.0443,"dy":0.0025,"dx":0.0025,"nx":19,"ny":19,"refTime":"2026-05-22T09:00:00:Z","depth":"4","parameterNumber":2,"parameterNumberName":"U-component_of_CURRENTS"},"data":[0,0,0,-0.1319,-0.1322,-0.148,-0.1481,-0.1592,-0.1593,0,0,0,0,0,0,0,0,0,0,0,-0.1258,-0.1259,-0.1319,-0.1323,-0.148,-0.1481,-0.1592,-0.1593,0,0,0,0,0,0,0,0,0,0,0,-0.1257,-0.1259,-0.126,-0.1323,-0.148,-0.1481,-0.1592,-0.1495,0,0,0,0,0,0,0,0,0,0,-0.1353,-0.1324,-0.1258,-0.126,-0.1324,-0.148,-0.1481,-0.1492,-0.1501,-0.1495,0,-0.1521,0,-0.1561,-0.1598,-0.1598,0,0,0,-0.1323,-0.1317,-0.1346,-0.126,-0.1326,-0.148,-0.1409,-0.1498,-0.1508,-0.1507,-0.1523,-0.1528,-0.1563,-0.1599,-0.1599,-0.1716,-0.1717,0,0,-0.1314,-0.1299,-0.1339,-0.1353,-0.1368,-0.1404,-0.1414,-0.1505,-0.1522,-0.1523,-0.1531,-0.1565,-0.1599,-0.16,-0.1716,-0.1716,0,0,0,-0.1289,-0.1293,-0.1322,-0.1347,-0.1384,-0.1409,-0.142,-0.1518,-0.1525,-0.1533,-0.1566,-0.16,-0.1601,-0.1715,-0.1716,-0.1774,0,0,0,-0.1284,-0.1278,-0.1318,-0.1312,-0.1383,-0.147,-0.1431,-0.1518,-0.1531,-0.1565,-0.16,-0.1601,-0.1714,-0.1715,-0.1771,-0.1787,0,0,0,-0.1251,-0.1276,-0.1291,-0.1311,-0.1379,-0.147,-0.1483,-0.1522,-0.155,-0.1598,-0.1602,-0.1714,-0.1715,-0.1768,-0.1782,-0.1796,0,0,0,-0.1232,-0.1271,-0.1291,-0.1358,-0.1377,-0.1489,-0.1483,-0.1572,-0.1619,-0.16,-0.1714,-0.1716,-0.1767,-0.1779,-0.1793,-0.1563,0,0,0,-0.1268,-0.1276,-0.1317,-0.1338,-0.1442,-0.1467,-0.1584,-0.1636,-0.1637,-0.1676,-0.168,-0.1772,-0.1782,-0.1795,-0.1662,0,0,0,0,-0.1321,-0.1346,-0.1384,-0.1453,-0.1526,-0.1606,-0.1664,-0.1686,-0.1745,-0.1673,-0.1789,-0.1793,-0.1799,-0.166,-0.1724,-0.1724,-0.1723,-0.1723,-0.1723,-0.1314,-0.1373,-0.1452,-0.1533,-0.1609,-0.1709,-0.1766,-0.1805,-0.1802,-0.1837,-0.1854,-0.1921,-0.1778,-0.1873,-0.1874,-0.1874,-0.1874,-0.1874,-0.1875,-0.1355,-0.1384,-0.1493,-0.1591,-0.168,-0.1776,-0.1872,-0.1888,-0.1944,-0.1926,-0.193,-0.1748,-0.1881,-0.1879,-0.1879,-0.1878,-0.1877,-0.1877,-0.1877,-0.131,-0.133,-0.1429,-0.1572,-0.1698,-0.1814,-0.1898,-0.1967,-0.1989,-0.2013,-0.1845,-0.1954,-0.1932,-0.2015,-0.2016,-0.2016,-0.2016,-0.2016,-0.2016,-0.1195,-0.1297,-0.1381,-0.1549,-0.1632,-0.1762,-0.1915,-0.1941,-0.1993,-0.1882,-0.2028,-0.1968,-0.1963,-0.194,-0.2019,-0.2018,-0.2018,-0.2018,-0.2017,-0.1089,-0.1164,-0.1265,-0.1362,-0.1558,-0.1638,-0.1831,-0.1833,-0.1838,-0.1769,-0.1799,-0.1809,-0.1758,-0.1758,-0.1726,-0.1744,-0.1741,-0.1738,0,-0.0987,-0.1044,-0.1153,-0.1265,-0.137,-0.1549,-0.154,-0.1607,-0.1629,-0.1573,-0.1807,-0.184,-0.1846,-0.1788,-0.1784,-0.1745,0,0,0,-0.0907,-0.0963,-0.099,-0.1152,-0.1266,-0.1369,-0.1523,-0.1473,-0.1653,-0.1582,-0.1671,-0.1688,-0.1901,-0.2026,-0.1972,-0.1966,-0.1926,0,0]},{"header":{"parameterUnit":"m.s-1","parameterCategory":2,"la1":30.2992,"la2":30.254,"lo1":-89.0895,"lo2":-89.0443,"dy":0.0025,"dx":0.0025,"nx":19,"ny":19,"refTime":"2026-05-22T09:00:00:Z","depth":"4","parameterNumber":3,"parameterNumberName":"V-component_of_CURRENTS"},"data":[0,0,0,-0.0242,-0.0239,-0.0126,-0.0126,-0.0028,-0.0027,0,0,0,0,0,0,0,0,0,0,0,-0.029,-0.029,-0.0242,-0.0239,-0.0126,-0.0126,-0.0028,-0.0027,0,0,0,0,0,0,0,0,0,0,0,-0.029,-0.029,-0.029,-0.0239,-0.0127,-0.0126,-0.0028,-0.0099,0,0,0,0,0,0,0,0,0,0,-0.0202,-0.0233,-0.029,-0.029,-0.0238,-0.0127,-0.0126,-0.0102,-0.0095,-0.0095,0,-0.0088,0,-0.0056,-0.0022,-0.0022,0,0,0,-0.023,-0.0239,-0.022,-0.029,-0.0237,-0.0127,-0.0175,-0.0098,-0.009,-0.0086,-0.0087,-0.0082,-0.0055,-0.0022,-0.0022,0.0039,0.004,0,0,-0.0236,-0.0255,-0.0226,-0.0216,-0.0223,-0.0178,-0.0171,-0.0092,-0.0084,-0.0086,-0.0079,-0.0053,-0.0021,-0.0021,0.0039,0.0039,0,0,0,-0.026,-0.0259,-0.0241,-0.022,-0.0196,-0.0175,-0.0167,-0.0087,-0.0085,-0.0078,-0.0052,-0.0021,-0.002,0.0039,0.0039,-0.0018,0,0,0,-0.0264,-0.0274,-0.0244,-0.0252,-0.0198,-0.0131,-0.0165,-0.0091,-0.008,-0.0052,-0.0021,-0.0019,0.0039,0.0039,-0.0017,-0.0045,0,0,0,-0.0293,-0.0276,-0.0271,-0.0254,-0.0209,-0.0131,-0.0123,-0.0087,-0.0065,-0.0022,-0.0019,0.0039,0.0039,-0.0016,-0.0043,-0.0001,0,0,0,-0.0305,-0.0313,-0.0271,-0.0263,-0.021,-0.0169,-0.0122,-0.0079,-0.0047,-0.0021,0.0039,0.0039,-0.0015,-0.0041,-0.0,-0.0038,0,0,0,-0.0328,-0.0316,-0.0311,-0.0271,-0.0262,-0.0183,-0.0151,-0.0088,-0.0039,0.0011,0.0013,-0.0017,-0.0042,-0.0001,-0.0017,0,0,0,0,-0.0326,-0.0335,-0.032,-0.0298,-0.025,-0.0208,-0.0134,-0.0089,-0.0027,-0.0018,0.0006,-0.0007,0.0021,0.0001,0.0041,0.0041,0.0041,0.0041,0.0041,-0.0408,-0.0375,-0.0382,-0.0346,-0.0312,-0.022,-0.0171,-0.0095,-0.0055,-0.0029,-0.0037,-0.0023,-0.0046,-0.0014,-0.0014,-0.0014,-0.0015,-0.0015,-0.0015,-0.0476,-0.0489,-0.0441,-0.0442,-0.0383,-0.0348,-0.022,-0.0164,-0.0071,-0.0054,-0.0023,-0.0039,-0.002,-0.0019,-0.0018,-0.0018,-0.0017,-0.0017,-0.0017,-0.0553,-0.0558,-0.0545,-0.0542,-0.0516,-0.0429,-0.0358,-0.0249,-0.013,-0.01,-0.0067,-0.0036,-0.0048,-0.007,-0.007,-0.007,-0.007,-0.007,-0.007,-0.0644,-0.0629,-0.0664,-0.0646,-0.0652,-0.0601,-0.0434,-0.0333,-0.0193,-0.0126,-0.0104,-0.004,-0.0038,-0.0049,-0.0069,-0.0069,-0.007,-0.007,-0.007,-0.0732,-0.0728,-0.0788,-0.0806,-0.0796,-0.0746,-0.0587,-0.0342,-0.0233,-0.0134,-0.0111,-0.0109,-0.0079,-0.0076,-0.0087,-0.0119,-0.012,-0.012,0,-0.0802,-0.08,-0.089,-0.0931,-0.0928,-0.0826,-0.0651,-0.048,-0.029,-0.0313,-0.0276,-0.0265,-0.0258,-0.0239,-0.0236,-0.0258,0,0,0,-0.0854,-0.0882,-0.0957,-0.0989,-0.0989,-0.0767,-0.0601,-0.0516,-0.0328,-0.0179,-0.0134,-0.013,-0.0127,-0.0067,-0.0015,-0.0013,-0.0025,0,0]}]]